SCP
-0 0 -0 -0 -0 -0 -0 -0 -0 -0 -0 -0 -0 -0 -0 -0 -0 -0 -0 -0 -0 -0 -0 -0 -0 -0 -0 -0 -0 -0 -0 -0 -0 -0 0 0 0 0 0 -0 -0 -0 -0
0 0 -0 -0 -0 -0 -0 -0 -0 -0 -0 -0 -0 -0 -0 -0 -0 -0 -0 -0 -0 -0 -0 -0 -0 -0 -0 -0 -0 -0 -0 -0 -0 0 0 0 0 0 0 -0 -0 -0 -0
0 0 0 -0 -0 -0 -0 -0 -0 -0 -0 -0 -0 -0 -0 -0 -0 -0 -0 0 0 -0 -0 -0 -0 -0 -0 -0 -0 -0 -0 0 0 0 0 0 0 0 0 0 -0 -0 -0
0 0 0 0 -0 -0 0 -0 -0 0 -0 -0 -0 -0 -0 -0 -0 -0 0 0 0 0 -0 -0 -0 -0 -0 -0 -0 0 0 0 0 0 -0 0 -0 0 0 0 0 0 0
0 0 0 0 0 0 0 0 0 0 0 0 -0 -0 -0 0 0 0 0 0 0 0 -0 -0 -0 -0 -0 -0 0 0 0 0 0 0 -0 0 0 0 0 0 0 0 0
0 0 0 0 0 0 0 0 0 0 0 0 0 0 -0 0 0 0 0 0 0 0 0 -0 -0 -0 -0 0 0 0 0 0 0 0 0 0 0 0 0 0 0 0 0
0 0 0 0 0 0 0 0 0 0 0 0 0 0 0 0 0 0 0 0 0 0 0 0 0 0 0 0 0 0 0 0 0 0 0 0 0 0 0 0 0 0 0
0 0 0 0 0 0 0 0 0 0 0 0 0 0 0 0 0 0 0 0 0 0 0 0 0 0 0 0 0 0 0 0 0 0 0 0 0 0 0 0 0 0 0
0 0 0 0 0 0 0 0 0 0 0 0 0 0 0 0 0 0 0 0 0 0 0 0 0 0 0 0 0 0 0 0 0 0 0 0 0 0 0 0 0 0 0
0 0 0 0 0 0 0 0 0 0 0 0 0 0 0 0 0 0 0 0 0 0 0 0 0 0 0 0 0 0 0 0 0 0 0 0 0 0 0 0 0 0 0
0 0 0 0 0 0 0 0 0 0 0 0 0 0 0 0 0 0 0 0 0 0 0 0 0 0 0 0 0 0 0 0 0 0 0 0 0 0 0 0 0 0 0
0 0 0 0 0 0 0 0 0 0 0 0 0 0 0 0 0 0 0 0 0 0 0 0 0 0 0 0 0 0 0 0 0 0 0 0 0 0 0 0 0 0 0
0 0 0 0 0 0 0 0 0 0 0 0 0 0 0 0 0 0 0 0 0 0 0 0 0 0 0 0 0 0 0 0 0 0 0 0 0 0 0 0 0 0 0
0 0 0 0 0 0 0 0 0 0 0 0 0 0 0 0 0 0 0 0 0 0 0 0 0 0 0 0 0 0 0 0 0 0 0 0 0 0 0 0 0 0 0
0 0 0 0 0 0 0 0 0 0 0 0 0 0 0 0 0 0 0 0 0 0 0 0 0 0 0 0 0 0 0 0 0 0 0 0 0 0 0 0 0 0 0
0 0 0 0 0 0 0 0 0 0 0 0 0 0 0 0 0 0 0 0 0 0 0 0 0 0 0 0 0 0 0 0 0 0 0 0 0 0 0 0 0 0 0
0 0 0 0 0 0 0 0 0 0 0 0 0 0 0 0 0 0 0 0 0 0 0 0 0 0 0 0 0 0 0 0 0 0 0 0 0 0 0 0 0 0 0
0 0 0 0 0 0 0 0 0 0 0 0 0 0 0 0 0 0 0 0 0 0 0 0 0 0 0 0 0 0 0 0 0 0 0 0 0 0 0 0 0 0 0
0 0 0 0 0 0 0 0 0 0 0 0 0 0 0 0 0 0 0 0 0 0 0 0 0 0 0 0 0 0 0 0 0 0 0 0 0 0 0 0 0 0 0
0 0 0 0 0 0 0 0 0 0 0 0 0 0 0 0 0 0 0 0 0 0 0 0 0 0 0 0 0 0 0 0 0 0 0 0 0 0 0 0 0 0 0
0 0 0 0 0 0 0 0 0 0 0 0 0 0 0 0 0 0 0 0 0 0 0 0 0 0 0 0 0 0 0 0 0 0 0 0 0 0 0 0 0 0 0
-0 -0 0 0 0 0 0 0 0 0 0 0 0 0 0 0 0 0 0 0 0 0 0 0 0 0 0 0 0 0 0 0 0 0 0 0 0 0 0 0 0 0 0
0 0 0 0 0 0 0 0 0 0 0 0 0 0 0 0 0 0 0 0 0 0 0 0 0 0 0 0 0 0 0 0 0 0 0 0 0 0 0 0 0 0 0
0 0 0 0 0 0 0 0 0 0 0 0 0 0 0 0 0 0 0 0 0 0 0 0 0 0 0 0 0 0 0 0 0 0 0 0 0 0 0 0 0 0 0
0 0 0 0 0 0 0 0 0 0 0 0 0 0 0 0 0 0 0 0 0 0 0 0 0 0 0 0 0 0 0 0 0 0 0 0 0 0 0 0 0 0 0
0 0 0 0 0 0 0 0 0 0 0 0 0 0 0 0 0 0 0 0 0 0 0 0 0 0 0 0 0 0 0 0 0 0 0 0 0 0 0 0 0 0 0
Wind_Speed_500mb
24 38 41 46 47 47 45 43 42 42 41 39 37 35 34 33 32 32 34 33 30 29 29 27 24 22 18 15 13 10 8 9 10 10 10 11 10 10 11 12 13 14 14
20 36 40 44 45 47 46 42 41 39 38 38 37 35 35 33 31 30 31 31 29 25 25 26 24 21 18 16 15 15 13 13 12 11 9 8 6 4 4 5 6 6 6
24 33 40 43 46 46 46 43 42 41 39 38 37 37 36 34 33 32 32 33 32 25 25 26 25 22 19 17 16 15 16 16 16 14 11 10 8 4 3 2 2 3 3
23 33 41 45 47 49 49 47 46 44 41 40 39 37 37 37 35 34 34 34 35 34 28 25 22 20 18 16 15 16 17 18 17 14 10 12 13 6 8 7 6 5 5
20 29 41 47 52 53 53 52 50 47 45 43 42 40 41 40 37 35 33 32 32 31 29 26 22 21 17 13 14 18 20 22 20 17 13 10 9 12 9 6 10 11 11
20 26 36 45 52 58 59 58 55 52 49 47 45 44 44 43 40 36 34 32 31 29 27 24 26 24 16 15 17 20 25 26 24 22 19 16 14 19 19 18 15 13 14
28 24 35 47 52 57 63 63 60 57 54 51 49 48 47 45 42 39 36 35 34 33 31 31 32 25 21 20 21 23 28 31 30 27 26 23 21 21 21 17 16 15 13
32 29 29 38 51 58 65 67 65 62 58 55 53 52 50 48 45 43 41 39 38 37 36 43 37 29 27 27 25 26 29 34 35 32 30 27 25 25 20 17 14 13 12
41 39 38 41 49 60 63 69 69 67 63 60 57 56 54 51 49 47 45 42 41 44 46 41 38 35 33 31 30 29 29 32 34 32 28 25 24 22 19 16 14 12 12
54 51 50 50 58 65 69 70 73 71 68 64 61 59 57 54 51 49 49 49 47 51 48 45 42 39 37 36 34 32 31 33 32 28 25 23 22 21 19 17 15 14 12
63 61 58 57 55 65 73 75 75 74 70 67 65 63 60 59 57 57 54 57 52 50 51 48 45 43 41 39 37 35 33 31 28 25 23 23 23 22 20 17 15 14 12
70 70 66 63 62 64 71 76 78 76 76 74 73 70 68 64 65 67 55 53 55 53 53 51 48 47 43 41 39 37 34 31 28 26 25 25 23 22 20 18 16 14 12
70 75 73 70 67 66 70 76 78 81 81 78 79 75 74 69 70 71 59 56 56 57 56 54 52 48 44 43 40 38 37 34 31 29 27 25 23 22 20 19 16 15 12
69 67 71 73 74 70 70 76 78 83 86 88 85 77 80 76 78 76 69 60 59 58 55 53 50 46 45 44 42 40 39 36 33 30 28 25 24 24 22 20 18 16 15
73 70 74 77 79 78 78 78 80 83 89 92 93 86 86 81 84 81 75 66 63 59 54 51 49 47 46 46 44 42 41 38 35 32 30 28 27 26 25 23 20 19 17
93 91 85 85 83 89 90 89 88 84 87 94 99 97 93 89 88 86 80 72 67 61 54 50 49 47 47 48 45 43 42 39 36 33 31 30 30 29 27 24 23 21 19
90 86 97 100 94 99 99 97 96 90 88 90 96 101 98 94 92 90 84 77 70 63 56 53 53 53 53 50 47 45 43 40 37 35 34 32 32 31 28 28 26 24 21
77 83 89 94 101 106 108 104 103 98 94 90 90 95 101 97 96 93 87 81 73 64 60 57 57 57 55 53 49 45 44 42 40 38 37 35 33 33 32 29 28 26 24
42 53 66 75 90 100 107 108 106 105 101 94 92 95 95 102 100 99 92 84 77 68 66 61 61 61 58 55 49 47 45 44 42 41 39 37 36 34 33 32 30 28 27
78 74 69 62 73 86 97 107 110 110 106 99 97 95 90 103 102 103 94 85 82 74 72 66 64 64 61 53 47 48 47 45 46 44 41 40 39 38 36 34 32 30 28
80 79 72 69 67 75 93 92 97 118 114 106 101 98 94 90 99 100 94 91 89 81 76 70 67 68 65 57 52 51 49 48 49 48 45 44 43 40 40 36 35 32 31
76 70 69 76 77 77 85 99 102 103 110 113 109 105 100 92 91 100 103 99 94 82 79 78 76 76 68 63 62 47 30 49 55 53 52 48 45 44 43 39 38 32 31
59 62 66 70 75 85 88 94 99 85 90 95 104 109 104 95 94 98 103 102 95 88 86 86 80 81 78 73 69 34 21 26 44 57 58 53 50 50 44 43 40 35 32
42 44 54 64 72 78 86 98 102 99 99 110 110 107 106 98 94 95 97 102 98 94 93 88 85 85 80 80 76 74 40 20 24 25 57 60 55 52 47 46 41 38 36
38 42 40 45 58 69 81 95 104 106 109 105 105 102 103 101 90 90 94 99 98 93 90 90 88 91 89 83 82 78 74 44 29 19 20 51 63 53 55 48 49 43 40
40 40 39 34 36 52 67 86 102 105 104 104 103 97 91 94 92 95 96 96 97 94 95 94 89 93 90 86 80 83 81 81 61 37 25 28 42 49 51 52 51 45 42
Wind_Direction_500mb
186 175 176 178 180 184 187 187 188 189 189 191 193 193 193 193 195 199 202 203 208 205 202 200 200 205 209 209 202 198 184 149 128 126 123 113 98 80 71 66 65 64 70
188 172 180 183 185 186 188 190 192 193 193 193 193 193 193 191 190 189 190 191 189 186 189 189 183 172 168 167 167 164 161 157 155 155 141 135 128 124 81 52 50 48 56
176 176 182 188 189 190 191 192 194 195 195 194 190 188 187 184 182 180 177 173 163 159 160 165 164 164 164 163 165 167 173 178 186 185 184 191 188 197 230 267 318 318 343
183 186 186 190 194 195 195 196 197 198 197 195 191 187 183 180 178 177 174 172 172 172 176 174 173 172 174 173 179 184 191 197 202 202 204 224 214 223 235 247 274 292 315
190 195 196 196 196 198 200 201 202 201 200 199 196 192 189 186 185 184 181 181 181 182 184 186 189 185 183 194 202 204 208 213 210 214 215 211 191 202 228 249 283 283 275
219 202 204 205 204 203 203 206 206 207 205 203 201 199 196 195 193 192 190 191 192 194 198 200 200 185 200 220 226 221 217 220 219 220 223 222 225 240 257 277 286 282 272
220 229 216 212 211 210 208 209 210 210 209 208 206 204 203 202 201 200 200 201 201 204 200 206 199 204 226 238 241 234 228 227 225 225 228 232 244 255 270 284 291 286 283
241 240 219 220 220 217 214 213 214 213 213 212 210 209 208 207 207 206 205 209 210 212 214 205 207 226 239 248 249 246 235 231 230 229 230 235 245 255 270 279 280 281 286
235 234 229 224 222 222 220 217 217 217 216 216 214 214 212 211 210 212 213 212 212 205 202 205 221 234 245 252 254 251 240 232 230 230 230 235 245 255 261 260 263 267 271
233 228 230 226 223 221 220 220 219 219 219 219 218 217 215 214 215 211 208 208 209 211 217 227 233 238 246 253 255 248 236 232 231 230 230 235 243 247 251 253 260 262 264
229 228 229 229 230 227 223 221 220 221 221 221 222 220 218 216 212 207 210 215 220 222 228 233 237 242 247 251 250 241 231 228 228 225 229 236 240 245 249 254 256 260 264
233 234 231 232 232 230 225 224 222 220 220 221 222 221 218 218 215 219 221 221 223 226 230 234 238 244 248 247 242 233 227 223 223 225 230 233 237 245 250 251 254 256 258
250 237 236 233 233 232 227 225 224 222 220 220 220 219 219 218 219 225 232 225 222 226 231 235 239 242 245 243 234 229 226 225 225 225 230 234 237 244 248 254 255 256 254
251 252 244 240 237 236 232 229 229 225 224 223 223 217 219 220 222 226 231 230 227 232 236 240 240 241 239 235 227 227 229 228 228 227 227 230 235 241 246 249 249 253 253
252 255 252 246 242 240 237 234 232 230 229 227 226 221 220 222 226 226 230 233 231 235 239 241 241 240 234 227 225 226 231 229 227 225 224 225 229 233 240 244 244 248 252
252 250 251 252 249 243 240 238 234 233 234 229 228 228 221 223 226 228 229 232 235 236 240 241 241 238 229 226 225 226 230 229 227 226 224 224 228 230 232 237 243 245 259
266 260 251 250 251 246 241 240 237 238 237 235 231 232 227 225 228 229 230 233 237 238 239 237 234 230 224 223 225 226 229 229 226 226 226 226 226 231 233 236 241 245 258
274 264 258 254 251 247 241 239 238 238 240 241 237 238 227 226 230 230 231 234 235 239 238 238 234 228 226 225 225 227 227 228 226 224 226 226 228 229 232 235 237 247 259
278 281 268 258 251 250 244 241 240 239 240 241 240 240 235 225 232 232 232 234 236 238 236 235 233 228 228 226 224 225 226 228 228 227 227 227 227 229 230 233 239 247 256
285 286 278 263 254 252 248 243 238 238 240 242 242 240 239 229 232 233 233 235 237 235 235 233 232 228 226 226 225 225 225 226 229 230 229 228 228 229 230 233 239 248 253
293 288 274 265 256 248 244 231 228 236 238 240 242 244 241 233 234 231 236 236 235 236 236 234 231 226 224 218 219 221 223 226 228 229 229 227 228 229 231 233 238 243 251
289 289 286 276 265 257 250 245 235 234 239 242 241 241 242 237 231 236 237 235 235 237 233 233 230 224 219 217 212 217 220 228 229 227 230 230 230 229 230 232 238 241 252
286 279 273 265 264 264 258 246 235 227 226 229 233 239 240 239 233 235 238 236 236 238 238 235 230 225 221 215 216 207 202 219 224 228 228 229 229 231 230 231 235 239 251
321 309 285 271 254 252 252 245 236 220 220 230 239 242 241 241 237 233 237 236 236 240 239 235 231 226 224 223 216 215 217 208 198 211 222 225 229 227 231 232 236 242 253
342 340 323 291 262 243 244 245 239 233 232 239 238 239 238 239 237 232 234 235 235 240 238 236 231 226 225 224 224 220 218 224 216 209 206 220 223 224 227 229 236 245 251
354 352 346 321 287 247 231 242 238 237 233 232 236 238 240 239 234 230 230 234 235 237 234 234 231 229 228 227 228 227 227 222 223 218 213 212 224 227 228 228 237 239 248
Wind_Speed_850mb
24 38 41 46 47 47 45 43 42 42 41 39 37 35 34 33 32 32 34 33 30 29 29 27 24 22 18 15 13 10 8 9 10 10 10 11 10 10 11 12 13 14 14
20 36 40 44 45 47 46 42 41 39 38 38 37 35 35 33 31 30 31 31 29 25 25 26 24 21 18 16 15 15 13 13 12 11 9 8 6 4 4 5 6 6 6
24 33 40 43 46 46 46 43 42 41 39 38 37 37 36 34 33 32 32 33 32 25 25 26 25 22 19 17 16 15 16 16 16 14 11 10 8 4 3 2 2 3 3
23 33 41 45 47 49 49 47 46 44 41 40 39 37 37 37 35 34 34 34 35 34 28 25 22 20 18 16 15 16 17 18 17 14 10 12 13 6 8 7 6 5 5
20 29 41 47 52 53 53 52 50 47 45 43 42 40 41 40 37 35 33 32 32 31 29 26 22 21 17 13 14 18 20 22 20 17 13 10 9 12 9 6 10 11 11
20 26 36 45 52 58 59 58 55 52 49 47 45 44 44 43 40 36 34 32 31 29 27 24 26 24 16 15 17 20 25 26 24 22 19 16 14 19 19 18 15 13 14
28 24 35 47 52 57 63 63 60 57 54 51 49 48 47 45 42 39 36 35 34 33 31 31 32 25 21 20 21 23 28 31 30 27 26 23 21 21 21 17 16 15 13
32 29 29 38 51 58 65 67 65 62 58 55 53 52 50 48 45 43 41 39 38 37 36 43 37 29 27 27 25 26 29 34 35 32 30 27 25 25 20 17 14 13 12
41 39 38 41 49 60 63 69 69 67 63 60 57 56 54 51 49 47 45 42 41 44 46 41 38 35 33 31 30 29 29 32 34 32 28 25 24 22 19 16 14 12 12
54 51 50 50 58 65 69 70 73 71 68 64 61 59 57 54 51 49 49 49 47 51 48 45 42 39 37 36 34 32 31 33 32 28 25 23 22 21 19 17 15 14 12
63 61 58 57 55 65 73 75 75 74 70 67 65 63 60 59 57 57 54 57 52 50 51 48 45 43 41 39 37 35 33 31 28 25 23 23 23 22 20 17 15 14 12
70 70 66 63 62 64 71 76 78 76 76 74 73 70 68 64 65 67 55 53 55 53 53 51 48 47 43 41 39 37 34 31 28 26 25 25 23 22 20 18 16 14 12
70 75 73 70 67 66 70 76 78 81 81 78 79 75 74 69 70 71 59 56 56 57 56 54 52 48 44 43 40 38 37 34 31 29 27 25 23 22 20 19 16 15 12
69 67 71 73 74 70 70 76 78 83 86 88 85 77 80 76 78 76 69 60 59 58 55 53 50 46 45 44 42 40 39 36 33 30 28 25 24 24 22 20 18 16 15
73 70 74 77 79 78 78 78 80 83 89 92 93 86 86 81 84 81 75 66 63 59 54 51 49 47 46 46 44 42 41 38 35 32 30 28 27 26 25 23 20 19 17
93 91 85 85 83 89 90 89 88 84 87 94 99 97 93 89 88 86 80 72 67 61 54 50 49 47 47 48 45 43 42 39 36 33 31 30 30 29 27 24 23 21 19
90 86 97 100 94 99 99 97 96 90 88 90 96 101 98 94 92 90 84 77 70 63 56 53 53 53 53 50 47 45 43 40 37 35 34 32 32 31 28 28 26 24 21
77 83 89 94 101 106 108 104 103 98 94 90 90 95 101 97 96 93 87 81 73 64 60 57 57 57 55 53 49 45 44 42 40 38 37 35 33 33 32 29 28 26 24
42 53 66 75 90 100 107 108 106 105 101 94 92 95 95 102 100 99 92 84 77 68 66 61 61 61 58 55 49 47 45 44 42 41 39 37 36 34 33 32 30 28 27
78 74 69 62 73 86 97 107 110 110 106 99 97 95 90 103 102 103 94 85 82 74 72 66 64 64 61 53 47 48 47 45 46 44 41 40 39 38 36 34 32 30 28
80 79 72 69 67 75 93 92 97 118 114 106 101 98 94 90 99 100 94 91 89 81 76 70 67 68 65 57 52 51 49 48 49 48 45 44 43 40 40 36 35 32 31
76 70 69 76 77 77 85 99 102 103 110 113 109 105 100 92 91 100 103 99 94 82 79 78 76 76 68 63 62 47 30 49 55 53 52 48 45 44 43 39 38 32 31
59 62 66 70 75 85 88 94 99 85 90 95 104 109 104 95 94 98 103 102 95 88 86 86 80 81 78 73 69 34 21 26 44 57 58 53 50 50 44 43 40 35 32
42 44 54 64 72 78 86 98 102 99 99 110 110 107 106 98 94 95 97 102 98 94 93 88 85 85 80 80 76 74 40 20 24 25 57 60 55 52 47 46 41 38 36
38 42 40 45 58 69 81 95 104 106 109 105 105 102 103 101 90 90 94 99 98 93 90 90 88 91 89 83 82 78 74 44 29 19 20 51 63 53 55 48 49 43 40
40 40 39 34 36 52 67 86 102 105 104 104 103 97 91 94 92 95 96 96 97 94 95 94 89 93 90 86 80 83 81 81 61 37 25 28 42 49 51 52 51 45 42
Wind_Direction_850mb
186 175 176 178 180 184 187 187 188 189 189 191 193 193 193 193 195 199 202 203 208 205 202 200 200 205 209 209 202 198 184 149 128 126 123 113 98 80 71 66 65 64 70
188 172 180 183 185 186 188 190 192 193 193 193 193 193 193 191 190 189 190 191 189 186 189 189 183 172 168 167 167 164 161 157 155 155 141 135 128 124 81 52 50 48 56
176 176 182 188 189 190 191 192 194 195 195 194 190 188 187 184 182 180 177 173 163 159 160 165 164 164 164 163 165 167 173 178 186 185 184 191 188 197 230 267 318 318 343
183 186 186 190 194 195 195 196 197 198 197 195 191 187 183 180 178 177 174 172 172 172 176 174 173 172 174 173 179 184 191 197 202 202 204 224 214 223 235 247 274 292 315
190 195 196 196 196 198 200 201 202 201 200 199 196 192 189 186 185 184 181 181 181 182 184 186 189 185 183 194 202 204 208 213 210 214 215 211 191 202 228 249 283 283 275
219 202 204 205 204 203 203 206 206 207 205 203 201 199 196 195 193 192 190 191 192 194 198 200 200 185 200 220 226 221 217 220 219 220 223 222 225 240 257 277 286 282 272
220 229 216 212 211 210 208 209 210 210 209 208 206 204 203 202 201 200 200 201 201 204 200 206 199 204 226 238 241 234 228 227 225 225 228 232 244 255 270 284 291 286 283
241 240 219 220 220 217 214 213 214 213 213 212 210 209 208 207 207 206 205 209 210 212 214 205 207 226 239 248 249 246 235 231 230 229 230 235 245 255 270 279 280 281 286
235 234 229 224 222 222 220 217 217 217 216 216 214 214 212 211 210 212 213 212 212 205 202 205 221 234 245 252 254 251 240 232 230 230 230 235 245 255 261 260 263 267 271
233 228 230 226 223 221 220 220 219 219 219 219 218 217 215 214 215 211 208 208 209 211 217 227 233 238 246 253 255 248 236 232 231 230 230 235 243 247 251 253 260 262 264
229 228 229 229 230 227 223 221 220 221 221 221 222 220 218 216 212 207 210 215 220 222 228 233 237 242 247 251 250 241 231 228 228 225 229 236 240 245 249 254 256 260 264
233 234 231 232 232 230 225 224 222 220 220 221 222 221 218 218 215 219 221 221 223 226 230 234 238 244 248 247 242 233 227 223 223 225 230 233 237 245 250 251 254 256 258
250 237 236 233 233 232 227 225 224 222 220 220 220 219 219 218 219 225 232 225 222 226 231 235 239 242 245 243 234 229 226 225 225 225 230 234 237 244 248 254 255 256 254
251 252 244 240 237 236 232 229 229 225 224 223 223 217 219 220 222 226 231 230 227 232 236 240 240 241 239 235 227 227 229 228 228 227 227 230 235 241 246 249 249 253 253
252 255 252 246 242 240 237 234 232 230 229 227 226 221 220 222 226 226 230 233 231 235 239 241 241 240 234 227 225 226 231 229 227 225 224 225 229 233 240 244 244 248 252
252 250 251 252 249 243 240 238 234 233 234 229 228 228 221 223 226 228 229 232 235 236 240 241 241 238 229 226 225 226 230 229 227 226 224 224 228 230 232 237 243 245 259
266 260 251 250 251 246 241 240 237 238 237 235 231 232 227 225 228 229 230 233 237 238 239 237 234 230 224 223 225 226 229 229 226 226 226 226 226 231 233 236 241 245 258
274 264 258 254 251 247 241 239 238 238 240 241 237 238 227 226 230 230 231 234 235 239 238 238 234 228 226 225 225 227 227 228 226 224 226 226 228 229 232 235 237 247 259
278 281 268 258 251 250 244 241 240 239 240 241 240 240 235 225 232 232 232 234 236 238 236 235 233 228 228 226 224 225 226 228 228 227 227 227 227 229 230 233 239 247 256
285 286 278 263 254 252 248 243 238 238 240 242 242 240 239 229 232 233 233 235 237 235 235 233 232 228 226 226 225 225 225 226 229 230 229 228 228 229 230 233 239 248 253
293 288 274 265 256 248 244 231 228 236 238 240 242 244 241 233 234 231 236 236 235 236 236 234 231 226 224 218 219 221 223 226 228 229 229 227 228 229 231 233 238 243 251
289 289 286 276 265 257 250 245 235 234 239 242 241 241 242 237 231 236 237 235 235 237 233 233 230 224 219 217 212 217 220 228 229 227 230 230 230 229 230 232 238 241 252
286 279 273 265 264 264 258 246 235 227 226 229 233 239 240 239 233 235 238 236 236 238 238 235 230 225 221 215 216 207 202 219 224 228 228 229 229 231 230 231 235 239 251
321 309 285 271 254 252 252 245 236 220 220 230 239 242 241 241 237 233 237 236 236 240 239 235 231 226 224 223 216 215 217 208 198 211 222 225 229 227 231 232 236 242 253
342 340 323 291 262 243 244 245 239 233 232 239 238 239 238 239 237 232 234 235 235 240 238 236 231 226 225 224 224 220 218 224 216 209 206 220 223 224 227 229 236 245 251
354 352 346 321 287 247 231 242 238 237 233 232 236 238 240 239 234 230 230 234 235 237 234 234 231 229 228 227 228 227 227 222 223 218 213 212 224 227 228 228 237 239 248